User: anonymous   Login
Location: Unspecified
(0.0000°N, 0.0000°E)
Time: 20:24:10
(UTC+00:00)
Language:

MUOS 3 - Orbit

View from above orbital plane
View from above orbital plane
View from above satellite
View from above satellite

Ground track
Ground track

The orbit data is extracted from the following two-line orbital elements,

1 40374U 15002A   20047.47271648 -.00000140 +00000-0 +00000-0 0  9994
2 40374 002.9403 344.1081 0051485 180.7164 135.7546 01.00270416018404
Epoch (UTC): 16 February 2020 11:20:42
Eccentricity: 0.0051485
inclination: 2.9403°
perigee height: 35569 km
apogee height: 36003 km
right ascension of ascending node: 344.1081°
argument of perigee: 180.7164°
revolutions per day: 1.00270416
mean anomaly at epoch: 135.7546°
orbit number at epoch: 1840

The dashed part of the orbit path shows where the satellite is in the earth's shadow,  

DLR